Regional Weather Roundup
Issued by NWS Charleston, SC

Current Version | Previous Version | Graphics & Text | Print | Product List | Glossary On
Versions: 1 2 3 4 5 6 7 8 9 10 11 12 13 14 15 16 17 18 19 20 21 22 23 24 25 26 27 28 29 30 31 32 33 34 35 36 37 38 39 40 41 42 43 44 45 46 47 48 49 50
000
ASUS42 KCHS 220225
RWRCHS

REGIONAL WEATHER ROUNDUP
NATIONAL WEATHER SERVICE CHARLESTON SC
900 PM EST TUE FEB 21 2017

NOTE: "FAIR" INDICATES FEW OR NO CLOUDS BELOW 12,000 FEET WITH NO
SIGNIFICANT WEATHER AND/OR OBSTRUCTIONS TO VISIBILITY.

NOT ALL STATIONS ARE QUALITY CONTROLLED. USE DATA WITH CAUTION...
ESPECIALLY DEWPOINT OBSERVATIONS.

SCZ027-030-031-034>040-042>050-220300-
...SOUTHEAST SOUTH CAROLINA...

CITY           SKY/WX    TMP DP  RH WIND       PRES   REMARKS
N CHARLESTON   MOCLDY    61  57  87 E8        30.07S
WATERFRONT PRK   N/A     61  60  97 NE5       30.06S
MOUNT PLEASANT FAIR      61  59  94 CALM      30.08S
JOHNS ISLAND   CLOUDY    63  59  88 N3        30.07S
PINOPOLIS        N/A     61  57  88 VRB3      29.99F
MONCKS CORNER  FAIR      59  55  88 E6        30.07F
SUMMERVILLE    FAIR      61  55  82 E3        30.08S
BEAUFORT MCAS  MOCLDY    64  61  90 E8        30.04S
BEAUFORT ARPT  FAIR      63  59  88 E5        30.03F
HILTON HEAD IS CLOUDY    63  61  94 VRB6      30.04S
WALTERBORO     CLOUDY    61  57  88 E7        30.06S
ALLENDALE      CLOUDY    64  59  82 CALM      30.03S

...SOUTHERN MIDLANDS AND PEE DEE...

CITY           SKY/WX    TMP DP  RH WIND       PRES   REMARKS
GEORGETOWN     FAIR      55  55 100 NE5       30.11R
KINGSTREE      CLOUDY    59  52  77 E5        30.09F
ORANGEBURG     MOCLDY    63  56  78 E6        30.06S
BARNWELL       MOCLDY    64  61  88 E7        30.04S
AIKEN          CLOUDY    61  55  82 E8        30.07F
MANNING        CLOUDY    59  45  58 MISG      30.08S
COLUMBIA       CLOUDY    65  54  67 E10       30.06S
SUMTER         CLOUDY    62  53  71 E6        30.06S
FLORENCE       CLOUDY    62  53  72 E7        30.10F
MYRTLE BEACH   CLOUDY    61  54  77 E12       30.12F
N MYRTLE BEACH CLOUDY    60  55  83 E8        30.10F

$$

GAZ063-065-086>088-099>101-113>116-118-119-134>141-150-220300-
...SOUTHEAST GEORGIA...

CITY           SKY/WX    TMP DP  RH WIND       PRES   REMARKS
SAVANNAH ARPT  CLOUDY    66  60  81 E13       30.01F
HUNTER AAF     MOCLDY    67  65  92 E7        29.99S
FORT STEWART   RAIN      66  63  88 SE6       29.98S
STATESBORO     CLOUDY    68  62  82 SE3       30.01S
SYLVANIA       CLOUDY   N/A N/A N/A E7        30.02F
CLAXTON        LGT RAIN N/A N/A N/A E3        30.00S

...CSRA...CENTRAL AND FAR SOUTHEAST GEORGIA...

CITY           SKY/WX    TMP DP  RH WIND       PRES   REMARKS
THOMSON        CLOUDY    67  60  79 E8        30.06S
AUGUSTA-BUSH   CLOUDY    67  59  75 E8        30.01F
AUGUSTA-DANIEL CLOUDY    66  56  70 E7        30.03F
SWAINSBORO     MOCLDY    66  59  77 E5        30.00S
VIDALIA        CLOUDY    66  63  88 E7        29.99S
EASTMAN        MOCLDY    68  51  55 SE5       29.99S
HAZLEHURST     FAIR      67  63  85 E5        29.97S
ALMA           MOCLDY    67  61  81 E6        29.97R
WAYCROSS       PTCLDY    69  66  90 SE7       29.97S
JESUP          FAIR      64  61  88 CALM      29.99R
BAXLEY         FAIR      64  64 100 CALM      29.98R
BRUNSWICK      PTCLDY    66  64  94 E5        30.00S
SAINT SIMONS   PTCLDY    66  63  90 SE8       29.99F

$$

SCZ027-028-034-036>038-045-046-048>050-GAZ119-141-220300-
...LAKE AND SUPPLEMENTAL COASTAL OBSERVATIONS...

STATION/POSITION TIME  TEMP    WIND        PRES    WAVE   SWELL
                       AIR SEA DIR/SP/G            HT/PER HT/PER/DIR
                 (UTC) (F)     (DEG/KT/KT) (MB)    (FT/S) (FT/S/D)
WINYAH BAY       0145   58      50/  7     1019.0S
LAKE MURRAY      0150   63      70/  3/  6 1017.3F
ACE BASIN NERRS  0145   62      50/  2     1017.0F
FORT PULASKI     0200   67 61  120/ 10/ 14 1016.7
SAPELO ISLAND    0200   66     130/  5     1016.0

$$

ANZ835-935-AMZ111-154-330-350-352-354-370-450-454-472-220300-
...C-MAN AND BUOY OBSERVATIONS...

STATION/POSITION TIME  TEMP    WIND        PRES    WAVE   SWELL
                       AIR SEA DIR/SP/G            HT/PER HT/PER/DIR
                 (UTC) (F)     (DEG/KT/KT) (MB)    (FT/S) (FT/S/D)
BUOY 41004       0150   70 69  120/ 16/ 17 1017.5R   4/ 6   2/ 80/14
BUOY 41008       0150   66 62  110/ 10/ 10 1016.0F   3/ 5   3/100/ 5
FOLLY BEACH CMAN 0200   61      30/  9/ 10 1018.5F
CAPERS NEARSHORE 0108   60 59   50/  8/ 10 1018.3F
FRIPP NEARSHORE  0208   63 61  110/ 10/ 12 1016.8F


STATION/POSITION TIME  TEMP    WIND        PRES    WAVE   SWELL
                       AIR SEA DIR/SP/G            HT/PER HT/PER/DIR
                 (UTC) (F)     (DEG/KT/KT) (MB)    (FT/S) (FT/S/D)
5E ST. MARYS GA  0200      65                N/A     3/ 5
FRYING PAN BUOY  0210   68 68  120/ 14/ 17 1019.1
BUOY 41025       0150   63 74  140/ 12/ 16 1021.1F   4/ 7   3/ 70/ 7
CAPE LOOKOUT NC  0200   62     110/  9/  9 1020.4F
BUOY 41002       0150   64 71   80/ 12/ 14 1020.3F   5/ 8   5/ 30/ 8
BUOY 41010       NOT AVBL
ST AUGUSTINE FL  0200   69 68  130/ 12/ 13 1016.2F


$$




USA.gov is the U.S. government's official web portal to all federal, state and local government web resources and services.